TITAN 3C TRANSTAGE DEB, 33509

Orbit data source: Space-Track

TITAN 3C TRANSTAGE DEB, 33509 is space debris in GEO originally from a launch on Thu, 26 Sep 1968 UTC launched from the Air Force Eastern Test Range (AFETR). Debris objects in space refer to the collection of defunct objects orbiting the Earth. Examples of debris include non-operational satellites, rocket bodies, and fragments generated from explosions, collisions, or faulty payload assembly.

Not visible in the next 10 days
Identifier
33509, 1968-081K
Orbit
GEO
Country
Flag of USUS
Related business
Manufacturer
Unknown
Mission
Spacecraft
Bus & Motor
Unknown
Mass
Unknown
Launch date (UTC)
1968-09-26 (57 years ago)
Launch vehicle
Unknown
Launch site
Air Force Eastern Test Range (AFETR)
Object type
Payload
Rocket body
Debris
Shape & HBR
Unknown shape, 1.1 m
Radar Cross Section
Large (>1 m²)

Expand to show TLE details & history
Last TLE update: 21 hours ago

TLE from 21 hours ago
0 TITAN 3C TRANSTAGE DEB
1 33509U 68081K   25347.71093752 -.00000087  00000-0  00000-0 0  9994
2 33509   1.4744  49.1864 0040121 356.7199 332.4557  1.02088979 77852
Epoch: 2025-12-13T17:03Z
TLE epoch observation values (Epoch: 2025-12-13T17:03:45.001Z)
Latitude
-0.74816°
Longitude
39.57601°
Altitude
35,136.269 km
Speed
3.104 km/s
True Right ascension
01h 12m 35s
True Declination
0° 44' 51"
Sunlit
Object was in daylight at epoch
Visualization orbit readout
Latitude
Unknown
Longitude
Unknown
Altitude
Unknown
Speed
Unknown
Apparent Right ascension
Unknown
Apparent Declination
Unknown
Sunlit
N/A
Visualization observer readout
Local Sidereal Time
13:01:23
Azimuth
Unknown
Elevation
Unknown
Doppler factor
Unknown
Orbital elements
Apogee altitude
35,452.983 km
Perigee altitude
35,118.663 km
Semi-major axis
41,663.96 km
Eccentricity
0.00401
Inclination
1.4744°
RAAN
49.1864°
Arg. of periapsis
356.7199°
True anomaly
332.24215°
Mean anomaly
332.4557°
Eccentric anomaly
332.34902°
Mean motion
0.25521 °/min
Orbital period
1,410.59 mins
BSTAR
0
Loading maneuver chart data...
Computing Atmospheric mass density...

Documentation

Showing up to 5 results
|